[[{"header":{"parameterUnit":"m.s-1","parameterCategory":1,"la1":30.2991,"la2":30.254,"lo1":-89.0895,"lo2":-89.0444,"dy":0.0017,"dx":0.0017,"nx":28,"ny":28,"refTime":"2025-12-01T09:00:00:Z","depth":0,"parameterNumber":2,"parameterNumberName":"U-component_of_WINDS"},"data":[0,0,0,0,0,0,0,0,0,0,0,0,0,0,0,0,0,0,0,0,0,0,0,0,0,0,0,0,0,0,0,0,0,0,0,0,0,0,0,0,0,0,0,0,0,0,0,0,0,0,0,0,0,0,0,0,0,0,2.4558,2.4558,0,2.4584,2.4585,2.4585,2.4524,2.4522,2.452,2.4518,2.4551,2.4554,2.4556,0,0,0,0,0,0,0,0,0,0,0,0,0,2.4463,2.4465,2.4558,2.4558,2.4558,2.4584,2.4585,2.4585,2.4524,2.4522,2.4519,2.4517,2.455,2.4553,2.4557,0,0,0,0,0,0,0,0,0,0,0,0,0,2.4498,2.4465,2.4558,2.4531,2.4529,2.4584,2.4585,2.4585,2.4525,2.4522,2.4519,2.4516,2.4549,2.4553,2.4557,2.4641,0,0,2.4569,2.4571,0,0,0,0,0,0,0,0,2.4496,2.4502,2.4535,2.4533,2.4531,2.4548,2.4563,2.4604,2.4525,2.4526,2.4518,2.4514,2.4553,2.4556,2.4568,2.4643,2.4644,2.457,2.4572,2.4574,2.4575,0,0,0,0,0,0,0,2.4494,2.45,2.4568,2.4535,2.4533,2.4521,2.4522,2.4571,2.4556,2.4526,2.4522,2.4525,2.4551,2.4564,2.4568,2.4645,2.457,2.4573,2.4576,2.4577,2.4797,2.48,0,0,0,0,0,0,2.4494,2.4499,2.4568,2.4569,2.4506,2.4525,2.4527,2.4545,2.4555,2.4554,2.4528,2.4522,2.4559,2.4564,2.4569,2.4672,2.4574,2.4578,2.458,2.4794,2.4798,2.4802,0,0,0,0,0,0,2.4492,2.4501,2.4566,2.4533,2.454,2.4529,2.4551,2.4547,2.456,2.4556,2.4554,2.4543,2.4556,2.4563,2.4625,2.4673,2.458,2.4583,2.479,2.4795,2.48,2.4877,0,0,0,0,0,0,2.449,2.45,2.453,2.4534,2.4542,2.4619,2.4554,2.455,2.4567,2.456,2.457,2.4569,2.4555,2.4619,2.4629,2.4676,2.4587,2.4786,2.4792,2.4798,2.487,2.4884,2.4896,0,0,0,0,0,2.4486,2.455,2.4531,2.454,2.4578,2.4622,2.4627,2.4607,2.4571,2.4602,2.4601,2.4569,2.4666,2.4626,2.4636,2.4686,2.4782,2.479,2.4798,2.4865,2.4882,2.4896,0,0,0,0,0,0,2.4553,2.455,2.4529,2.4596,2.461,2.4611,2.465,2.4625,2.465,2.4643,2.4619,2.4622,2.469,2.4694,2.4649,2.4772,2.4718,2.4729,2.4766,2.4782,2.4795,2.4793,2.459,0,0,0,0,0,2.4575,2.4608,2.4605,2.4664,2.4672,2.466,2.4678,2.4662,2.4676,2.4682,2.4684,2.4701,2.4736,2.4759,2.479,2.4871,2.4875,2.4911,2.4924,2.4935,2.4944,2.4993,2.501,2.4827,2.4827,2.4827,0,0,2.4621,2.4624,2.4646,2.4678,2.4686,2.4725,2.4665,2.4707,2.4736,2.4689,2.4747,2.4751,2.4768,2.4841,2.4873,2.4847,2.4996,2.4944,2.4953,2.4956,2.5002,2.502,2.5035,2.4832,2.4831,2.483,0,0,2.4726,2.473,2.4781,2.4792,2.4806,2.4798,2.4811,2.4818,2.4818,2.4877,2.4843,2.488,2.4938,2.4954,2.4969,2.5086,2.5059,2.5097,2.5165,2.5212,2.5227,2.5239,2.5285,2.5301,2.5106,2.5106,2.5106,0,2.4782,2.4835,2.4812,2.4857,2.4874,2.4833,2.4888,2.49,2.4924,2.4939,2.4908,2.4985,2.4993,2.5072,2.5101,2.5113,2.5131,2.5095,2.5226,2.5239,2.525,2.5293,2.531,2.5111,2.511,2.511,2.5109,0,2.4906,2.4944,2.4985,2.5009,2.5031,2.5081,2.5069,2.5094,2.5078,2.5075,2.5138,2.5148,2.5183,2.52,2.5184,2.5278,2.5262,2.5229,2.5176,2.5273,2.5313,2.5329,2.5118,2.5116,2.5115,2.5113,0,0,2.505,2.5064,2.5079,2.5092,2.5107,2.5137,2.5188,2.5221,2.5246,2.5265,2.531,2.5363,2.5335,2.5353,2.5339,2.5381,2.5478,2.5344,2.5344,2.5371,2.5588,2.5614,2.5633,2.5461,2.5464,2.5466,2.5588,0,2.5156,2.524,2.5223,2.5307,2.5345,2.5309,2.5354,2.537,2.537,2.5405,2.5406,2.5446,2.5403,2.5415,2.5454,2.5458,2.5522,2.5448,2.5506,2.5508,2.5504,2.5653,2.5679,2.5793,2.5603,2.5605,2.5607,0,2.5289,2.5314,2.5402,2.5415,2.543,2.547,2.5503,2.5535,2.5555,2.5553,2.5575,2.5555,2.5611,2.5557,2.5635,2.5586,2.5609,2.5615,2.5619,2.5625,2.5564,2.5665,2.5828,2.5846,2.5631,2.5629,2.5628,0,2.539,2.5445,2.5506,2.5518,2.5534,2.5564,2.5572,2.5589,2.5612,2.5641,2.5657,2.5693,2.5713,2.5743,2.5736,2.5696,2.5818,2.5762,2.5821,2.5822,2.5848,2.5847,2.602,2.586,2.586,2.586,2.5859,0,2.551,2.5566,2.5552,2.5589,2.5653,2.5635,2.57,2.5705,2.5721,2.5762,2.5734,2.5774,2.576,2.5801,2.5796,2.5865,2.5873,2.5876,2.5875,2.588,2.588,2.5895,2.5888,2.5864,2.5863,2.5862,2.5862,0,2.5632,2.5624,2.5689,2.57,2.5705,2.5751,2.5763,2.58,2.58,2.5853,2.5864,2.5864,2.5911,2.5907,2.5959,2.5956,2.6043,2.603,2.6035,2.6034,2.6094,2.609,2.6284,2.6311,2.6132,2.6134,2.6135,0,2.571,2.5753,2.5769,2.5794,2.5805,2.5845,2.5868,2.5854,2.5881,2.591,2.5946,2.599,2.6025,2.6103,2.611,2.6152,2.6142,2.6208,2.6148,2.6154,2.6147,2.6146,2.6152,2.622,2.6222,2.6223,2.6225,0,2.5851,2.5846,2.588,2.5914,2.5943,2.597,2.5994,2.6017,2.6006,2.6038,2.6085,2.6112,2.6168,2.6214,2.6255,2.6268,2.6247,2.6244,2.626,2.6266,2.6269,2.6272,2.607,2.6239,2.6238,2.6236,2.6236,2.6235,2.5955,2.5993,2.6012,2.6052,2.6069,2.6093,2.613,2.6135,2.6174,2.6216,2.6207,2.6262,2.6287,2.6339,2.6357,2.6403,2.638,2.6402,2.6409,2.6415,2.6424,2.6261,2.641,2.641,2.6409,2.6409,2.6408,0,2.6097,2.6108,2.6145,2.618,2.6214,2.6189,2.6216,2.6246,2.6294,2.6318,2.6353,2.6411,2.6458,2.647,2.6515,2.655,2.6542,2.6563,2.6561,2.6566,2.644,2.6423,2.6569,2.6569,2.6569,2.6569,2.6569,2.6569,2.6175,2.6239,2.6237,2.6312,2.6323,2.6375,2.6393,2.6418,2.6437,2.6502,2.654,2.6547,2.6569,2.6616,2.666,2.6663,2.6682,2.6708,2.6708,2.659,2.6574,2.6559,2.6542,2.6712,2.6712,2.683,2.6831,2.6832]},{"header":{"parameterUnit":"m.s-1","parameterCategory":1,"la1":30.2991,"la2":30.254,"lo1":-89.0895,"lo2":-89.0444,"dy":0.0017,"dx":0.0017,"nx":28,"ny":28,"refTime":"2025-12-01T09:00:00:Z","depth":0,"parameterNumber":3,"parameterNumberName":"V-component_of_WINDS"},"data":[0,0,0,0,0,0,0,0,0,0,0,0,0,0,0,0,0,0,0,0,0,0,0,0,0,0,0,0,0,0,0,0,0,0,0,0,0,0,0,0,0,0,0,0,0,0,0,0,0,0,0,0,0,0,0,0,0,0,-5.2327,-5.2327,0,-5.2317,-5.2317,-5.2317,-5.2274,-5.2273,-5.2272,-5.2271,-5.2259,-5.226,-5.226,0,0,0,0,0,0,0,0,0,0,0,0,0,-5.2303,-5.2304,-5.2327,-5.2327,-5.2327,-5.2317,-5.2317,-5.2317,-5.2274,-5.2273,-5.2272,-5.2271,-5.2259,-5.226,-5.226,0,0,0,0,0,0,0,0,0,0,0,0,0,-5.2306,-5.2304,-5.2327,-5.2304,-5.2302,-5.2317,-5.2317,-5.2317,-5.2275,-5.2273,-5.2272,-5.227,-5.2259,-5.226,-5.226,-5.2296,0,0,-5.2263,-5.2264,0,0,0,0,0,0,0,0,-5.2306,-5.2307,-5.2308,-5.2306,-5.2303,-5.2295,-5.2304,-5.231,-5.2275,-5.2285,-5.2271,-5.2269,-5.2272,-5.2272,-5.2273,-5.2296,-5.2295,-5.2263,-5.2264,-5.2264,-5.2265,0,0,0,0,0,0,0,-5.2305,-5.2307,-5.2323,-5.2308,-5.2305,-5.2293,-5.2292,-5.2305,-5.2287,-5.2284,-5.2281,-5.228,-5.2271,-5.2273,-5.2273,-5.2295,-5.2263,-5.2264,-5.2265,-5.2265,-5.2341,-5.2343,0,0,0,0,0,0,-5.2309,-5.2307,-5.2323,-5.2323,-5.2301,-5.2295,-5.2293,-5.2299,-5.2287,-5.2283,-5.2282,-5.2278,-5.2272,-5.2272,-5.2272,-5.231,-5.2264,-5.2265,-5.2266,-5.234,-5.2342,-5.2343,0,0,0,0,0,0,-5.2309,-5.2311,-5.2324,-5.2314,-5.2315,-5.2297,-5.2304,-5.23,-5.2302,-5.2285,-5.2281,-5.2287,-5.2271,-5.2271,-5.229,-5.2309,-5.2266,-5.2266,-5.2338,-5.2341,-5.2343,-5.2388,0,0,0,0,0,0,-5.2308,-5.2311,-5.2326,-5.2315,-5.2315,-5.2343,-5.2305,-5.2301,-5.2304,-5.2299,-5.2289,-5.2286,-5.2269,-5.2289,-5.2291,-5.231,-5.2267,-5.2336,-5.2339,-5.2342,-5.2385,-5.2392,-5.2398,0,0,0,0,0,-5.2307,-5.2339,-5.2327,-5.2329,-5.2333,-5.2344,-5.2344,-5.2325,-5.2306,-5.2319,-5.2308,-5.2286,-5.2307,-5.2291,-5.2293,-5.2313,-5.2335,-5.2338,-5.2342,-5.2382,-5.2391,-5.2398,0,0,0,0,0,0,-5.2353,-5.2338,-5.2323,-5.2353,-5.235,-5.2337,-5.2354,-5.2335,-5.2338,-5.2334,-5.2309,-5.2307,-5.2328,-5.2323,-5.2305,-5.2344,-5.2317,-5.2321,-5.2347,-5.2355,-5.2361,-5.2362,-5.2268,0,0,0,0,0,-5.2367,-5.2378,-5.2363,-5.2391,-5.239,-5.2372,-5.2376,-5.2361,-5.2357,-5.2356,-5.2346,-5.2342,-5.2347,-5.2351,-5.2355,-5.2384,-5.2379,-5.2398,-5.2405,-5.241,-5.2413,-5.2424,-5.2432,-5.2354,-5.2354,-5.2354,0,0,-5.2395,-5.2388,-5.2396,-5.2399,-5.2396,-5.2406,-5.2371,-5.2385,-5.2391,-5.2358,-5.2374,-5.2367,-5.236,-5.2383,-5.2393,-5.2379,-5.2434,-5.2414,-5.2419,-5.2419,-5.2429,-5.2436,-5.2442,-5.2357,-5.2356,-5.2356,0,0,-5.245,-5.2448,-5.2468,-5.2465,-5.2459,-5.2447,-5.2452,-5.2441,-5.2434,-5.2451,-5.2425,-5.2431,-5.2442,-5.2437,-5.2436,-5.2487,-5.2466,-5.2489,-5.2522,-5.2533,-5.2539,-5.2545,-5.256,-5.2566,-5.2493,-5.2493,-5.2493,0,-5.2486,-5.2501,-5.2481,-5.2495,-5.2496,-5.2466,-5.2485,-5.2482,-5.2478,-5.2479,-5.2463,-5.2473,-5.2467,-5.2487,-5.2499,-5.2501,-5.2503,-5.249,-5.2541,-5.2546,-5.255,-5.2564,-5.257,-5.2496,-5.2495,-5.2495,-5.2495,0,-5.2543,-5.2554,-5.2571,-5.2568,-5.2571,-5.2587,-5.2568,-5.2573,-5.2557,-5.2546,-5.2561,-5.2552,-5.2552,-5.2556,-5.2542,-5.2573,-5.2564,-5.2545,-5.2517,-5.256,-5.2573,-5.2579,-5.2499,-5.2498,-5.2498,-5.2497,0,0,-5.2628,-5.2611,-5.2618,-5.2614,-5.2605,-5.2612,-5.2626,-5.2626,-5.263,-5.2628,-5.2637,-5.2645,-5.2626,-5.2625,-5.261,-5.262,-5.2657,-5.2599,-5.2598,-5.2608,-5.2687,-5.27,-5.2707,-5.2643,-5.2644,-5.2645,-5.2686,0,-5.2679,-5.2703,-5.2684,-5.271,-5.2718,-5.2688,-5.27,-5.2694,-5.2683,-5.2687,-5.2675,-5.268,-5.2656,-5.2655,-5.2664,-5.265,-5.2672,-5.2647,-5.2649,-5.2649,-5.265,-5.2714,-5.2728,-5.2768,-5.2692,-5.2692,-5.2693,0,-5.2742,-5.2742,-5.2769,-5.2755,-5.2757,-5.2768,-5.2765,-5.277,-5.2762,-5.2753,-5.275,-5.2731,-5.2741,-5.2715,-5.2727,-5.271,-5.271,-5.2703,-5.2704,-5.2702,-5.2673,-5.2711,-5.278,-5.2785,-5.2701,-5.2701,-5.27,0,-5.2798,-5.2804,-5.282,-5.2819,-5.2803,-5.2811,-5.2805,-5.2795,-5.2795,-5.2793,-5.2792,-5.279,-5.2789,-5.2787,-5.2766,-5.275,-5.278,-5.2753,-5.277,-5.2771,-5.2777,-5.2777,-5.2845,-5.2781,-5.278,-5.278,-5.278,0,-5.2855,-5.2872,-5.2844,-5.2854,-5.2871,-5.2848,-5.2866,-5.2856,-5.2847,-5.2853,-5.2828,-5.2833,-5.2807,-5.2809,-5.2793,-5.2803,-5.2803,-5.2795,-5.279,-5.2796,-5.2796,-5.2794,-5.2789,-5.2782,-5.2782,-5.2781,-5.2781,0,-5.292,-5.2903,-5.2918,-5.2901,-5.2897,-5.291,-5.2895,-5.2902,-5.2889,-5.2896,-5.2897,-5.2876,-5.2876,-5.2856,-5.2853,-5.2842,-5.2858,-5.285,-5.2861,-5.2858,-5.2875,-5.2873,-5.2943,-5.2949,-5.2883,-5.2884,-5.2884,0,-5.2957,-5.2969,-5.2954,-5.2956,-5.2951,-5.2955,-5.2955,-5.2932,-5.2932,-5.2922,-5.293,-5.2928,-5.2926,-5.2928,-5.2911,-5.2908,-5.2897,-5.2922,-5.2897,-5.2901,-5.2894,-5.2893,-5.2893,-5.2927,-5.2928,-5.2928,-5.2929,0,-5.3024,-5.3014,-5.3015,-5.3012,-5.3013,-5.301,-5.3004,-5.3007,-5.2982,-5.2983,-5.2984,-5.2982,-5.2978,-5.2976,-5.2969,-5.296,-5.2939,-5.2937,-5.294,-5.2946,-5.2951,-5.2945,-5.2873,-5.2935,-5.2935,-5.2934,-5.2934,-5.2934,-5.3074,-5.3082,-5.3071,-5.3073,-5.3066,-5.3061,-5.3066,-5.3053,-5.3053,-5.3048,-5.3035,-5.3037,-5.3025,-5.3013,-5.3006,-5.3006,-5.2994,-5.2999,-5.3,-5.3002,-5.3004,-5.2952,-5.3005,-5.3005,-5.3005,-5.3004,-5.3004,0,-5.3137,-5.3128,-5.3129,-5.3123,-5.3123,-5.3104,-5.3097,-5.3097,-5.31,-5.3091,-5.3089,-5.3087,-5.3085,-5.3067,-5.3062,-5.3065,-5.3055,-5.3064,-5.3062,-5.306,-5.3017,-5.3013,-5.3072,-5.3072,-5.3072,-5.3072,-5.3072,-5.3072,-5.3169,-5.3181,-5.3169,-5.3177,-5.3167,-5.3169,-5.3166,-5.3161,-5.3153,-5.3153,-5.3151,-5.3139,-5.3126,-5.3119,-5.3115,-5.3109,-5.3107,-5.3119,-5.311,-5.307,-5.3063,-5.3057,-5.3053,-5.312,-5.312,-5.3153,-5.3153,-5.3154]}]]